Terug naar catalogus

STARLINK-6040

ActiefCommunicatieVLEO
NORAD 56809·PAYLOAD·🇺🇸 United States

Gelanceerd May 31, 2023 vanaf Vandenberg Space Force Base

Loading…

Volgende Passages (komende 24 uur)

TLE

VersSource: CelesTrak SupGP

Epoch: Sep 14, 2026, 21:07 UTC

1 56809C 23078AU  26257.88034722  .00034114  00000+0  28585-2 0  2573
2 56809  70.0012 227.2845 0003487 264.7752  69.3361 14.98318601    15

Volg STARLINK-6040 in realtime met AllMySat

Download on the App Store